When you browse on this site, cookies collect data to enhance your experience and personalize the content and advertising you see.
Visit our Privacy Policy to learn more. By continuing to use the site, you agree to this use of cookies and data.
  • In Hungary
  • List of Countries
  • For 7 days
  • Water Temperature
  • Weather Map
  • News
  • Weather Widgets
  • user-avatar
    Login

    Hourly Weather Onvervaht

    Today, 12 November, Tuesday

    Time Temperature Precipitation Wind Pressure Humidity
    00:00 +26°C° 0.2 mm 1 mps 755 mmHg 96%
    01:00 +26°C° 0.2 mm 1 mps 754 mmHg 96%
    02:00 +26°C° 0 mm 1 mps 754 mmHg 96%
    03:00 +26°C° 0 mm 1 mps 754 mmHg 97%
    04:00 +25°C° 0 mm 1 mps 754 mmHg 97%
    05:00 +23°C° 0 mm 0 mps 754 mmHg 98%
    06:00 +27°C° 0.1 mm 1 mps 755 mmHg 92%
    07:00 +28°C° 0.1 mm 1 mps 755 mmHg 85%
    08:00 +30°C° 0.1 mm 1 mps 756 mmHg 79%
    09:00 +32°C° 0.2 mm 1 mps 756 mmHg 70%
    10:00 +34°C° 0.2 mm 1 mps 756 mmHg 60%
    11:00 +36°C° 0.2 mm 1 mps 755 mmHg 51%
    12:00 +35°C° 0.5 mm 1 mps 755 mmHg 55%
    13:00 +34°C° 0.5 mm 1 mps 754 mmHg 59%
    14:00 +34°C° 0.5 mm 2 mps 753 mmHg 63%
    15:00 +32°C° 0.3 mm 2 mps 753 mmHg 67%
    16:00 +31°C° 0.3 mm 2 mps 753 mmHg 71%
    17:00 +30°C° 0.3 mm 2 mps 753 mmHg 76%
    18:00 +29°C° 0 mm 2 mps 753 mmHg 80%
    19:00 +28°C° 0 mm 1 mps 754 mmHg 84%
    20:00 +27°C° 0 mm 1 mps 755 mmHg 88%
    21:00 +27°C° 0 mm 1 mps 755 mmHg 90%
    22:00 +26°C° 0 mm 1 mps 755 mmHg 92%
    23:00 +26°C° 0 mm 1 mps 755 mmHg 94%

    Tomorrow, 13 November, Wednesday

    Time Temperature Precipitation Wind Pressure Humidity
    00:00 +26°C° 0.1 mm 1 mps 755 mmHg 96%
    01:00 +24°C° 0.1 mm 0 mps 754 mmHg 97%
    02:00 +23°C° 0.1 mm 0 mps 754 mmHg 98%
    03:00 +23°C° 0 mm 0 mps 754 mmHg 98%
    04:00 +23°C° 0 mm 0 mps 754 mmHg 99%
    05:00 +23°C° 0 mm 0 mps 755 mmHg 99%
    06:00 +27°C° 0 mm 1 mps 755 mmHg 91%
    07:00 +29°C° 0 mm 1 mps 755 mmHg 84%
    08:00 +30°C° 0 mm 2 mps 756 mmHg 76%
    09:00 +32°C° 0.1 mm 2 mps 756 mmHg 67%
    10:00 +35°C° 0.1 mm 2 mps 756 mmHg 58%
    11:00 +36°C° 0.1 mm 1 mps 755 mmHg 49%
    12:00 +36°C° 0.2 mm 1 mps 754 mmHg 48%
    13:00 +37°C° 0.2 mm 2 mps 754 mmHg 47%
    14:00 +37°C° 0.2 mm 2 mps 753 mmHg 47%
    15:00 +35°C° 0.2 mm 2 mps 753 mmHg 56%
    16:00 +32°C° 0.2 mm 2 mps 752 mmHg 66%
    17:00 +30°C° 0.2 mm 2 mps 752 mmHg 76%
    18:00 +29°C° 0.1 mm 2 mps 753 mmHg 81%
    19:00 +28°C° 0.1 mm 2 mps 754 mmHg 86%
    20:00 +27°C° 0.1 mm 1 mps 754 mmHg 91%
    21:00 +27°C° 0 mm 1 mps 755 mmHg 93%
    22:00 +27°C° 0 mm 1 mps 755 mmHg 94%
    23:00 +26°C° 0 mm 1 mps 755 mmHg 95%

    Day after tomorrow, 14 November, Thursday

    Time Temperature Precipitation Wind Pressure Humidity
    00:00 +26°C° 0 mm 1 mps 754 mmHg 96%
    01:00 +26°C° 0 mm 1 mps 754 mmHg 97%
    02:00 +26°C° 0 mm 1 mps 754 mmHg 98%
    03:00 +26°C° 0 mm 1 mps 754 mmHg 98%
    04:00 +26°C° 0 mm 1 mps 754 mmHg 98%
    05:00 +24°C° 0 mm 0 mps 755 mmHg 98%
    06:00 +27°C° 0 mm 1 mps 755 mmHg 91%
    07:00 +29°C° 0 mm 1 mps 756 mmHg 84%
    08:00 +30°C° 0 mm 2 mps 756 mmHg 77%
    09:00 +32°C° 0 mm 2 mps 756 mmHg 68%
    10:00 +33°C° 0 mm 1 mps 756 mmHg 58%
    11:00 +35°C° 0 mm 1 mps 756 mmHg 49%
    12:00 +37°C° 0 mm 2 mps 755 mmHg 47%
    13:00 +37°C° 0 mm 2 mps 754 mmHg 46%
    14:00 +37°C° 0 mm 2 mps 753 mmHg 44%
    15:00 +36°C° 0 mm 2 mps 753 mmHg 52%
    16:00 +34°C° 0 mm 2 mps 753 mmHg 60%
    17:00 +31°C° 0 mm 2 mps 753 mmHg 69%
    18:00 +30°C° 0.2 mm 2 mps 754 mmHg 76%
    19:00 +29°C° 0.2 mm 1 mps 754 mmHg 82%
    20:00 +28°C° 0.2 mm 1 mps 755 mmHg 89%
    21:00 +27°C° 0.1 mm 1 mps 755 mmHg 91%
    22:00 +27°C° 0.1 mm 1 mps 755 mmHg 93%
    23:00 +27°C° 0.1 mm 1 mps 755 mmHg 94%

    15 November, Friday

    Time Temperature Precipitation Wind Pressure Humidity
    00:00 +26°C° 0.9 mm 1 mps 755 mmHg 95%
    01:00 +26°C° 0.9 mm 1 mps 754 mmHg 96%
    02:00 +26°C° 0.9 mm 1 mps 754 mmHg 97%
    03:00 +26°C° 0.7 mm 1 mps 754 mmHg 97%
    04:00 +26°C° 0.7 mm 1 mps 754 mmHg 98%
    05:00 +26°C° 0.7 mm 1 mps 754 mmHg 98%
    06:00 +27°C° 0.5 mm 1 mps 755 mmHg 95%
    07:00 +28°C° 0.5 mm 1 mps 755 mmHg 93%
    08:00 +28°C° 0.5 mm 1 mps 756 mmHg 90%
    09:00 +30°C° 0.4 mm 1 mps 756 mmHg 83%
    10:00 +31°C° 0.4 mm 1 mps 756 mmHg 76%
    11:00 +33°C° 0.4 mm 1 mps 755 mmHg 68%
    12:00 +32°C° 1.3 mm 1 mps 755 mmHg 74%
    13:00 +31°C° 1.3 mm 1 mps 754 mmHg 79%
    14:00 +30°C° 1.3 mm 2 mps 753 mmHg 84%
    15:00 +29°C° 1 mm 2 mps 753 mmHg 87%
    16:00 +28°C° 1 mm 1 mps 753 mmHg 91%
    17:00 +27°C° 1 mm 1 mps 753 mmHg 95%
    18:00 +27°C° 0 mm 1 mps 753 mmHg 96%
    19:00 +27°C° 0 mm 1 mps 754 mmHg 96%
    20:00 +26°C° 0 mm 1 mps 754 mmHg 97%
    21:00 +26°C° 0 mm 1 mps 754 mmHg 97%
    22:00 +26°C° 0 mm 1 mps 754 mmHg 98%
    23:00 +26°C° 0 mm 1 mps 754 mmHg 98%

    16 November, Saturday

    Time Temperature Precipitation Wind Pressure Humidity
    00:00 +26°C° 0 mm 1 mps 753 mmHg 98%
    01:00 +25°C° 0 mm 1 mps 753 mmHg 99%
    02:00 +23°C° 0 mm 0 mps 752 mmHg 99%
    03:00 +23°C° 0 mm 0 mps 752 mmHg 99%
    04:00 +23°C° 0 mm 0 mps 753 mmHg 99%
    05:00 +23°C° 0 mm 0 mps 753 mmHg 99%
    06:00 +27°C° 0 mm 1 mps 753 mmHg 93%
    07:00 +28°C° 0 mm 1 mps 754 mmHg 88%
    08:00 +29°C° 0 mm 1 mps 755 mmHg 83%
    09:00 +31°C° 0.1 mm 1 mps 754 mmHg 71%
    10:00 +34°C° 0.1 mm 1 mps 754 mmHg 59%
    11:00 +36°C° 0.1 mm 1 mps 754 mmHg 48%
    12:00 +34°C° 1.2 mm 1 mps 753 mmHg 60%
    13:00 +32°C° 1.2 mm 1 mps 752 mmHg 73%
    14:00 +30°C° 1.2 mm 1 mps 751 mmHg 86%
    15:00 +29°C° 0.8 mm 1 mps 751 mmHg 89%
    16:00 +28°C° 0.8 mm 1 mps 751 mmHg 92%
    17:00 +28°C° 0.8 mm 1 mps 751 mmHg 94%
    18:00 +27°C° 0 mm 1 mps 752 mmHg 95%
    19:00 +26°C° 0 mm 1 mps 752 mmHg 96%
    20:00 +26°C° 0 mm 1 mps 753 mmHg 97%
    21:00 +26°C° 0.2 mm 1 mps 753 mmHg 97%
    22:00 +26°C° 0.2 mm 1 mps 753 mmHg 98%
    23:00 +25°C° 0.2 mm 1 mps 753 mmHg 98%

    17 November, Sunday

    Time Temperature Precipitation Wind Pressure Humidity
    00:00 +25°C° 0.4 mm 1 mps 753 mmHg 98%
    01:00 +25°C° 0.4 mm 1 mps 752 mmHg 98%
    02:00 +25°C° 0.4 mm 1 mps 752 mmHg 99%
    03:00 +23°C° 0 mm 0 mps 752 mmHg 99%
    04:00 +23°C° 0 mm 0 mps 753 mmHg 98%
    05:00 +23°C° 0 mm 0 mps 753 mmHg 98%
    06:00 +26°C° 0.5 mm 1 mps 753 mmHg 96%
    07:00 +27°C° 0.5 mm 1 mps 754 mmHg 94%
    08:00 +28°C° 0.5 mm 1 mps 755 mmHg 92%
    09:00 +30°C° 0.8 mm 1 mps 754 mmHg 80%
    10:00 +32°C° 0.8 mm 1 mps 754 mmHg 69%
    11:00 +33°C° 0.8 mm 1 mps 754 mmHg 58%
    12:00 +34°C° 0.1 mm 1 mps 753 mmHg 53%
    13:00 +35°C° 0.1 mm 1 mps 752 mmHg 48%
    14:00 +36°C° 0.1 mm 1 mps 751 mmHg 43%
    15:00 +33°C° 0.3 mm 1 mps 751 mmHg 57%
    16:00 +31°C° 0.3 mm 1 mps 752 mmHg 71%
    17:00 +28°C° 0.3 mm 1 mps 752 mmHg 85%
    18:00 +27°C° 1.1 mm 1 mps 752 mmHg 89%
    19:00 +26°C° 1.1 mm 1 mps 753 mmHg 92%
    20:00 +26°C° 1.1 mm 1 mps 754 mmHg 96%
    21:00 +25°C° 1 mm 1 mps 754 mmHg 96%
    22:00 +25°C° 1 mm 1 mps 754 mmHg 96%
    23:00 +25°C° 1 mm 1 mps 755 mmHg 97%
    Show more